Reflectivity
-17 -20 -20 -19 -20 -20 -17 -12 -20 -20 -20 -15 -7 14 16 8 10 34 14 3 22 -6 -20 -0 30 0 -12 -20 -18 -20 -20 -20 -20 -20 -20 -20 -20 -20 -18 -13 -20 -20 -20
-16 -16 -19 -20 -20 -20 -20 -20 -20 -20 -20 -12 13 28 7 14 23 29 29 -5 24 13 5 21 20 -20 -20 -19 -20 -20 -20 -20 -20 -20 -20 -20 -20 -20 -20 -20 -20 -20 -20
1 -14 -4 -20 -20 -20 -20 -20 -20 -6 -19 -17 -20 -8 22 25 16 -9 -3 -5 13 -9 11 21 -2 -20 -20 -12 -20 -20 -20 -20 -20 -20 -20 -20 -20 -20 -20 -20 -15 -20 -20
-18 6 3 -13 -20 -20 -1 -19 -20 -20 -13 -16 -2 13 8 21 19 -11 -13 4 -9 6 13 13 -7 -20 -20 -20 -20 -18 -20 -20 -20 -20 -20 -20 -20 -20 -20 -20 -20 -20 -20
-8 -19 -5 3 -2 5 -9 -5 -20 -20 -20 1 4 -18 -20 18 15 -6 -20 -20 -11 -20 -20 -20 -20 -20 -3 -8 -4 -12 -20 -20 -20 -20 -20 -20 -20 -20 -20 -20 -20 -20 -20
-12 7 -8 -5 13 -2 6 -4 -1 -20 -20 -20 -5 -18 -20 26 20 -8 -20 -20 -20 -20 -20 -20 -20 -4 -20 -20 -20 -20 -4 -18 -8 -20 -20 -20 -20 -20 -20 -13 -1 -20 -20
-18 -2 1 12 9 2 18 26 6 -4 -4 -8 4 4 12 3 9 20 12 7 8 8 4 5 -1 -9 -1 4 7 10 5 -15 -20 -20 -20 -20 -20 -20 7 -10 -20 -20 -20
-20 2 -18 16 -13 -2 -3 7 3 -12 -20 7 -8 13 12 7 5 12 11 14 9 5 -3 -7 -9 -1 3 -4 -9 -20 -20 -20 -20 -20 -20 -19 -16 6 -18 -18 -18 -20 -20
-20 -20 -6 -20 -20 -6 5 -17 10 -20 5 -15 17 14 9 9 15 -11 -9 5 -17 6 11 13 12 4 -6 -19 -20 -20 -20 -20 -15 7 11 -5 5 8 -8 0 -20 -20 -1
-20 -20 -20 -20 -20 -16 -17 -9 24 -12 15 -16 23 30 -6 28 18 19 17 7 14 14 14 5 5 1 11 4 -2 -7 -7 6 5 -18 0 9 10 8 7 11 24 15 -4
-20 -20 -20 -20 -20 -13 -20 -5 10 17 16 18 26 32 31 30 24 1 17 17 13 13 14 20 7 15 13 9 5 -7 3 11 9 20 23 5 18 25 19 17 13 3 7
-20 -20 -20 -19 -3 -12 5 14 20 18 1 20 -9 8 26 20 26 29 36 34 31 30 30 32 31 20 19 27 20 11 1 13 15 12 19 19 11 6 3 -3 12 13 7
-20 -20 -20 -20 -20 -8 -20 2 -19 -4 -4 17 19 28 13 17 28 22 34 38 29 36 33 9 27 13 19 22 14 18 25 20 4 -7 -14 -16 -1 13 -5 15 -2 -3 10
-19 -4 2 -20 -20 -20 -20 -20 1 -17 13 1 11 -15 -1 16 18 8 -1 12 15 12 8 1 10 19 16 10 2 -12 -2 -13 -14 -5 11 14 4 2 2 5 16 -13 -13
12 -17 -20 -20 -13 -20 -20 -20 -15 -8 10 2 2 -18 -4 -1 -2 4 -0 -12 -16 -8 -20 -20 -20 -20 -17 -20 -20 -20 -9 -17 -15 -1 6 2 2 1 7 17 14 -7 -5
3 -10 -15 -20 -2 -20 -20 -15 5 10 19 23 25 2 1 -3 14 6 -4 -12 -4 -5 -12 -20 -20 -20 -20 -20 -20 -20 -20 -3 -18 -12 -4 -7 -8 -9 -4 3 14 9 16
15 20 7 -15 -20 -19 -20 -20 -16 16 12 11 11 11 9 5 -20 -20 2 3 7 -6 -20 -20 -20 -20 -20 -20 -20 -19 1 5 -20 -6 4 8 16 23 14 13 6 8 10
18 29 34 9 -20 -20 -20 -20 -20 -20 -17 -4 11 -1 -4 -6 -2 -13 2 -20 -20 -20 -20 -20 -20 -20 8 8 4 17 -12 -13 -5 4 -5 -19 -8 13 -4 -3 -3 3 10
14 15 17 24 16 -7 -20 -20 -20 -20 -20 -17 -7 -2 9 6 2 5 9 -20 -20 -20 -20 -20 -20 -20 -13 -20 -20 -20 -17 -8 3 2 -3 -1 0 0 3 3 5 4 -16
15 11 24 26 21 8 -20 -20 -1 -7 -17 -20 -20 -20 -6 8 0 -17 -20 -20 -20 -20 -20 -20 -20 -20 -20 -20 -20 -20 -20 -18 -20 -18 -12 -14 -16 -11 -4 -3 -16 -14 -12
18 14 21 25 24 16 4 0 10 -1 -18 -20 -20 -14 -3 -20 -20 -18 -19 -11 -20 -20 -20 -20 -20 -20 -20 -20 -20 -20 -20 -20 -20 -20 -20 -20 -20 -20 -20 -20 -20 -20 -20
14 16 20 25 27 22 7 10 17 20 16 -0 -20 -11 -6 -20 -20 -20 -20 -20 -20 -19 -20 -20 -20 -20 -20 -20 -20 -20 -20 -20 -20 -20 -20 -20 -20 -20 -9 -9 -15 1 1
19 18 23 26 26 20 9 11 16 18 19 6 -20 -20 -20 -20 -20 -20 -20 -20 -20 -20 -20 -20 -20 -20 -20 -20 -20 -20 -20 -14 -20 -20 -20 -20 -20 -20 -20 -20 -20 -20 -20
17 19 15 14 22 17 8 7 15 18 17 15 -9 -20 -20 -20 -20 -20 -20 -20 -20 -20 -20 -20 -20 -20 -20 -20 -20 -20 -20 -20 -20 -20 -20 -20 -20 -16 -20 -20 -20 -20 -20
15 14 17 18 14 12 11 10 12 15 16 16 10 -16 -20 -20 -20 -20 -8 -6 -20 -20 -20 -20 -20 -20 -20 -20 -20 -20 -20 -20 -20 -20 -20 -20 -20 -20 -20 -20 -20 -19 -20
14 16 16 16 15 15 14 12 11 9 8 9 -5 -20 -20 -20 -20 -20 -20 -20 -20 -20 -20 -20 -20 -20 -20 -20 -20 -20 -20 -20 -20 -20 -20 -20 -20 -15 -20 -20 -20 -20 -17
Wind_Speed
3 6 7 8 10 8 7 8 9 10 10 11 13 13 12 12 11 10 14 11 17 14 12 15 15 14 9 8 7 6 5 5 6 3 2 5 5 7 7 8 8 9 8
11 6 8 8 8 8 7 7 7 10 10 10 10 11 14 14 16 16 14 14 16 15 13 15 16 10 14 12 9 8 7 7 6 9 5 5 5 5 5 8 7 8 9
12 9 6 8 8 9 10 8 7 7 8 11 13 13 12 14 16 18 16 15 16 15 16 16 14 15 15 9 9 9 7 6 7 6 6 3 3 3 3 4 8 8 8
14 10 6 8 9 8 9 9 9 8 8 7 9 11 12 12 15 16 17 17 16 16 15 16 14 16 14 12 10 10 8 8 8 7 7 5 3 3 4 4 6 7 8
14 12 8 7 8 8 9 9 8 9 9 8 8 10 9 9 9 14 13 13 14 15 13 13 13 13 13 11 8 10 9 8 8 7 7 6 5 4 6 5 7 6 8
14 13 11 5 7 10 10 9 8 7 8 11 11 11 11 8 12 13 10 9 9 10 11 10 9 9 9 11 13 10 11 11 10 8 8 8 11 6 6 7 6 4 5
14 13 11 6 6 8 8 10 11 10 7 9 10 9 10 11 15 17 16 11 11 11 11 10 9 7 11 11 12 11 11 12 10 10 11 11 9 10 9 9 10 8 7
13 12 11 9 2 7 9 9 9 8 8 7 10 11 9 8 16 17 16 10 9 10 10 11 11 12 12 10 9 10 11 10 12 7 9 7 8 5 8 7 10 9 0
13 11 11 10 7 3 7 9 7 8 9 8 6 9 11 10 13 15 15 9 8 9 8 9 9 8 10 12 9 9 9 7 6 11 9 5 4 7 7 4 3 3 2
12 12 11 9 6 4 3 4 5 6 7 6 7 6 8 8 15 16 12 6 8 6 6 6 9 8 11 12 8 7 6 6 5 3 3 6 7 8 15 9 6 4 3
12 11 9 6 6 5 3 3 1 4 5 5 5 4 5 5 8 15 14 8 7 6 6 5 5 10 12 12 11 9 7 5 6 4 4 4 4 5 5 7 7 6 4
10 10 8 6 4 3 4 4 4 4 7 6 7 5 4 4 4 9 14 8 9 5 4 3 4 10 9 10 8 6 7 5 3 3 3 3 3 3 3 3 3 2 1
8 8 7 4 3 4 5 5 4 5 4 5 5 5 4 3 4 8 10 10 9 4 4 7 9 8 8 6 5 6 6 3 3 3 3 3 2 2 4 4 4 5 4
7 5 5 3 2 5 4 4 4 4 5 4 6 6 4 5 4 5 5 8 13 9 10 7 8 9 8 7 4 2 2 3 3 3 2 3 3 2 2 2 2 1 2
5 4 6 4 5 7 6 5 5 5 4 4 5 4 6 5 3 7 7 5 6 8 8 6 5 4 5 4 4 4 4 4 3 2 2 2 2 2 2 1 2 1 1
4 5 6 4 5 6 7 9 19 15 17 17 15 10 8 13 16 16 16 16 14 11 7 6 6 5 5 4 5 5 5 5 3 3 3 2 2 2 2 2 2 1 2
2 4 5 6 5 7 6 7 12 13 21 20 19 18 17 18 19 20 20 19 17 14 8 6 6 5 5 5 5 4 3 3 3 4 3 3 3 2 2 1 1 1 1
8 0 3 4 6 7 7 5 7 8 9 8 16 15 18 18 17 18 19 14 9 10 7 7 6 5 5 5 5 5 5 4 5 4 4 4 4 2 1 2 1 1 1
9 6 4 2 3 6 7 7 8 9 8 7 7 14 17 21 20 19 16 9 8 7 7 7 6 6 6 5 5 5 6 5 5 4 4 4 3 2 2 2 2 2 2
10 17 11 5 3 5 5 7 8 7 7 7 7 7 5 6 8 8 8 8 7 7 6 6 6 6 6 5 6 5 5 6 6 5 5 4 4 3 3 3 2 2 2
8 10 16 8 6 6 6 7 8 8 7 8 8 8 13 8 8 7 7 7 7 6 6 6 6 6 6 5 5 5 5 5 5 4 4 4 3 4 3 3 3 2 1
9 10 9 9 7 8 8 7 10 9 7 8 9 10 15 9 8 8 8 7 6 6 4 5 5 5 5 5 4 5 5 5 4 4 4 4 4 3 3 3 2 1 1
9 10 10 9 9 11 9 9 10 9 7 6 7 7 7 8 8 7 7 6 6 4 5 6 5 5 5 5 4 4 4 4 3 3 2 2 2 3 3 2 3 3 3
9 9 8 7 7 8 8 10 8 10 7 5 5 6 8 8 7 6 5 5 4 5 5 4 4 6 4 3 3 2 2 1 1 2 2 1 1 2 2 2 3 3 3
8 8 8 7 7 7 7 7 7 6 5 4 5 6 6 5 5 4 5 5 4 4 4 2 2 3 2 1 2 2 3 7 3 2 1 2 2 2 2 2 3 4 4
7 6 6 5 5 6 5 5 5 5 4 3 3 4 4 3 3 2 2 4 3 3 2 2 2 3 3 3 3 4 6 5 4 5 4 2 2 3 2 2 3 3 5
Wind_Direction
278 203 204 209 213 209 222 245 227 210 188 187 189 180 179 173 175 185 198 192 201 198 189 191 205 203 200 192 188 193 180 189 234 182 191 178 179 200 201 217 213 209 219
332 250 215 210 219 218 222 208 198 199 181 176 180 183 189 182 183 189 198 195 198 191 195 194 201 199 208 204 196 200 202 200 220 243 194 193 203 204 206 205 216 223 219
335 323 206 201 198 206 215 193 166 179 184 187 187 182 185 190 188 197 195 197 197 196 190 203 196 193 205 197 198 205 205 204 215 229 227 183 167 182 179 216 218 222 228
332 319 252 199 195 195 205 202 175 164 164 174 192 188 183 192 198 197 195 201 198 201 195 199 197 194 202 194 196 203 204 209 216 221 230 207 200 157 215 212 216 221 225
329 321 305 195 191 184 188 185 177 183 164 164 170 190 183 193 199 196 196 193 200 200 194 199 200 195 196 193 187 199 195 202 215 208 217 215 193 193 202 198 230 212 227
330 323 316 211 181 190 196 191 188 194 179 167 178 189 181 183 182 179 172 178 188 187 188 191 191 180 185 189 192 191 189 195 207 208 209 214 224 211 192 203 209 186 239
324 324 320 291 181 183 187 195 204 209 196 197 178 177 198 195 172 175 174 182 183 188 186 182 184 188 190 197 201 196 200 205 209 206 210 213 216 201 199 205 203 206 219
320 324 328 334 262 178 179 193 189 183 187 189 192 183 181 195 177 185 178 186 188 190 191 186 184 187 190 186 191 200 211 209 219 219 223 243 225 209 200 207 214 223 193
320 324 326 333 337 279 191 195 186 187 190 185 196 191 192 188 181 169 168 175 174 183 188 185 179 178 173 173 180 188 199 218 201 207 224 215 188 165 149 129 166 143 192
320 318 322 330 349 357 347 179 196 189 192 186 193 185 187 173 168 168 174 166 168 176 177 181 173 177 164 177 183 181 198 212 187 195 213 235 226 219 183 193 165 187 147
311 305 307 331 350 6 2 5 94 133 118 117 107 100 155 175 164 166 173 171 168 172 172 176 183 186 177 186 195 180 198 150 190 195 199 202 180 189 189 203 187 188 163
300 295 296 329 352 3 41 44 76 104 116 112 108 86 56 67 134 181 179 171 157 155 163 141 155 174 169 183 189 187 189 160 166 181 183 195 189 190 185 191 176 174 157
278 284 282 297 357 32 62 53 59 83 108 117 112 105 84 37 50 119 132 137 124 101 118 121 122 125 125 140 164 195 197 182 169 167 189 191 175 141 99 84 62 83 69
264 277 261 220 99 74 67 68 65 66 100 113 120 111 97 77 64 76 89 92 90 94 98 94 94 92 87 86 83 99 129 154 162 155 138 97 85 62 81 83 104 121 103
238 220 227 181 120 88 65 64 75 59 64 111 96 106 110 91 64 86 94 95 94 95 101 100 98 84 83 81 72 59 58 62 80 82 97 104 99 91 97 105 87 83 103
257 210 202 174 134 121 109 87 64 76 80 78 76 85 81 91 86 83 90 92 96 103 84 85 75 65 70 73 75 68 49 59 59 82 80 86 96 105 103 80 86 131 136
249 270 206 178 160 135 130 115 106 70 71 74 80 86 90 98 93 92 87 84 92 94 90 85 83 80 72 67 69 62 64 41 56 67 82 89 103 80 105 117 116 107 125
10 50 285 190 163 146 131 116 107 105 97 81 72 85 87 93 96 102 104 95 79 70 80 85 82 80 73 71 67 68 61 53 58 60 60 64 69 84 77 95 105 98 97
33 11 23 11 120 130 118 108 98 98 101 101 90 73 74 83 83 81 83 88 94 86 83 81 78 77 76 74 73 69 69 66 63 62 55 59 54 65 69 72 79 121 126
22 35 37 28 29 77 99 97 99 97 100 98 90 86 87 86 73 67 65 73 80 80 79 80 72 68 64 64 71 69 67 61 62 61 59 58 55 57 61 55 51 45 39
23 36 32 36 24 61 64 71 80 83 85 81 75 86 96 90 85 72 67 57 61 70 76 79 76 70 61 61 65 73 75 68 54 55 56 54 51 57 49 50 44 41 34
23 35 27 27 31 46 62 55 69 65 56 82 86 81 91 89 91 89 85 85 84 76 75 80 77 73 70 67 67 78 82 75 59 50 47 35 27 43 37 39 35 20 347
24 32 34 29 21 30 46 54 59 66 63 61 79 86 83 86 84 84 85 81 91 92 74 73 73 61 49 51 53 61 93 88 59 38 41 37 38 33 29 346 347 342 341
20 36 38 27 40 37 38 48 53 67 67 59 70 80 79 79 86 92 104 100 99 83 77 75 75 72 65 43 23 23 35 355 317 352 337 354 359 350 343 334 317 333 336
22 21 37 32 30 34 43 49 54 52 55 49 59 71 83 91 103 112 120 113 91 80 70 56 69 86 88 327 331 308 306 285 264 272 241 249 254 268 304 312 325 303 319
17 21 28 26 41 41 46 44 44 44 35 38 52 78 92 85 81 88 91 75 70 53 348 339 353 337 310 283 272 288 275 272 274 268 255 236 244 246 255 290 306 303 296